CYGFM04

Last updated on Sat Feb 07 2026 00:02:23 GMT+0000 (Coordinated Universal Time)

1 41885U 16078B 26037.34428483 .00032519 00000+0 49575-3 0 9994 2 41885 34.9348 16.2836 0005718 359.2189 0.8525 15.53424088508589
UTC large
Height (km)
Speed (km/s)
/
Latitude / Longitude
Inclination (degrees)
Orbital Period (minutes)
Azimuth
Elevation
Range (km)
Doppler Factor

Next 0 passes for location: London (51.5072 / 0.1276)

Sorry there are no passes over London.